Weather History for Torrington, WY

Change the Weather History Date:

Friday, November 1, 2013

  Actual Average Record
Temperature  
Mean Temperature 40 °F 42 °F  
Max Temperature 52 °F 57 °F 76 °F (2008)
Min Temperature 28 °F 28 °F 10 °F (2006)
Degree Days  
Heating Degree Days 25 23  
Month to date heating degree days 25 23  
Since 1 July heating degree days 727 733  
Cooling Degree Days 0 0  
Month to date cooling degree days 0 0  
Year to date cooling degree days 893 678  
Moisture  
Dew Point 27 °F    
Average Humidity 59    
Maximum Humidity 85    
Minimum Humidity 32    
Precipitation  
Precipitation 0.00 in 0.02 in 0.14 in (2011)
Month to date precipitation 0.00 0.02  
Year to date precipitation 13.12 13.42  
Sea Level Pressure  
Sea Level Pressure 30.07 in    
Wind  
Wind Speed 14 mph (NW)    
Max Wind Speed 31 mph    
Max Gust Speed 41 mph    
Visibility 10 miles    
Events      
T = Trace of Precipitation, MM = Missing Value Source: NWS Daily Summary

Daily Weather History Graph

Daily Weather History Graph

Search for Another Location

Airport:

Trip Planner

Search our weather history database for the weather conditions in past years. The results will help you decide how hot, cold, wet, or windy it might be!

Date:

Astronomy

Nov. 01, 2013 Rise Set
Actual Time 7:29 AM MDT 5:50 PM MDT
Civil Twilight 7:00 AM MDT 6:19 PM MDT
Nautical Twilight 6:27 AM MDT 6:52 PM MDT
Astronomical Twilight 5:55 AM MDT 7:24 PM MDT
Moon 5:22 AM MDT (11/1) 4:45 PM MDT (11/1)
Length of Visible Light 11h 18m
Length of Day
10h 20m
Waning Crescent, 4% of the Moon is Illuminated
Nov 1
Waning Crescent
Nov 3
New
Nov 9
First Quarter
Nov 17
Full
Nov 25
Last Quarter

Hourly Weather History & Observations

Time (MDT) Temp. Windchill Dew Point Humidity Pressure Visibility Wind Dir Wind Speed Gust Speed Precip Events Conditions
12:53 AM 39.9 °F 32.9 °F 35.1 °F 83% 29.86 in 10.0 mi WNW 11.5 mph - N/A   Overcast
1:53 AM 39.0 °F 32.3 °F 33.1 °F 79% 29.87 in 10.0 mi WNW 10.4 mph - N/A   Clear
2:53 AM 37.0 °F 31.0 °F 32.0 °F 82% 29.89 in 10.0 mi WNW 8.1 mph - N/A   Clear
3:53 AM 39.0 °F 30.3 °F 30.9 °F 73% 29.92 in 10.0 mi NW 16.1 mph 23.0 mph N/A   Partly Cloudy
4:53 AM 39.0 °F 30.6 °F 30.0 °F 70% 29.94 in 10.0 mi NW 15.0 mph - N/A   Partly Cloudy
5:53 AM 37.9 °F 30.0 °F 30.0 °F 73% 29.99 in 10.0 mi NW 12.7 mph - N/A   Clear
6:53 AM 36.0 °F 28.0 °F 30.0 °F 79% 30.02 in 10.0 mi WNW 11.5 mph - N/A   Partly Cloudy
7:53 AM 36.0 °F 28.5 °F 30.0 °F 79% 30.04 in 10.0 mi WNW 10.4 mph - N/A   Partly Cloudy
8:53 AM 41.0 °F 33.5 °F 30.9 °F 67% 30.07 in 10.0 mi WNW 13.8 mph - N/A   Clear
9:53 AM 45.0 °F 37.9 °F 30.0 °F 56% 30.09 in 10.0 mi NW 16.1 mph - N/A   Clear
10:53 AM 46.0 °F 37.2 °F 27.0 °F 47% 30.09 in 10.0 mi NW 26.5 mph 36.8 mph N/A   Clear
11:53 AM 48.0 °F - 26.1 °F 42% 30.10 in 10.0 mi NW 28.8 mph 41.4 mph N/A   Partly Cloudy
12:53 PM 50.0 °F - 26.1 °F 39% 30.09 in 10.0 mi NW 25.3 mph 36.8 mph N/A   Scattered Clouds
1:53 PM 51.1 °F - 24.1 °F 35% 30.08 in 10.0 mi WNW 19.6 mph 33.4 mph N/A   Scattered Clouds
2:53 PM 50.0 °F - 21.0 °F 32% 30.09 in 10.0 mi NNW 23.0 mph 32.2 mph N/A   Mostly Cloudy
3:53 PM 50.0 °F - 21.0 °F 32% 30.10 in 10.0 mi NNW 19.6 mph 28.8 mph N/A   Scattered Clouds
4:53 PM 48.9 °F - 23.0 °F 36% 30.12 in 10.0 mi NNW 15.0 mph 23.0 mph N/A   Mostly Cloudy
5:53 PM 45.0 °F 39.7 °F 23.0 °F 42% 30.14 in 10.0 mi NNW 10.4 mph - N/A   Clear
6:53 PM 39.0 °F 32.3 °F 24.1 °F 55% 30.18 in 10.0 mi North 10.4 mph - N/A   Clear
7:53 PM 37.9 °F 30.9 °F 23.0 °F 55% 30.20 in 10.0 mi North 10.4 mph - N/A   Clear
8:53 PM 36.0 °F 29.0 °F 21.9 °F 57% 30.19 in 10.0 mi North 9.2 mph - N/A   Clear
9:53 PM 32.0 °F 24.8 °F 21.9 °F 66% 30.20 in 10.0 mi North 8.1 mph - N/A   Clear
10:53 PM 30.9 °F 26.2 °F 24.1 °F 76% 30.23 in 10.0 mi WSW 4.6 mph - N/A   Clear
11:53 PM 32.0 °F 28.7 °F 24.1 °F 73% 30.22 in 10.0 mi WNW 3.5 mph - N/A   Clear